COSMOS 2251 DEB

Satellite information

Favourite Embed

Satellite Type and Status

DEBRISIN ORBIT

Key statistics

Satellite COSMOS 2251 DEB at a glance.

Uptime

11819

Days in orbit

Revolutions

≈ 14.9

Per day

Orbit

LEO

Low Earth Orbit

Inclination

74.0

Latest

Satellite identification and parameters

Extended collection of information and parameters for COSMOS 2251 DEB.

Object identification

Identified? True

Debris? True

Object name: COSMOS 2251 DEB

International designator: 1993-036EU

Object number (NORAD): 33939

Object ID (CCSDS): 33939

Country: COMMONWEALTH OF INDEPENDENT STATES (CIS)

Current information (Y/N): Y

RCS size: SMALL

Orbital parameters

Period: 96.328 minutes

Inclination: 74.0079 deg

SMA: 6960.847 km

Apoapsis: 589.215 km

Periapsis: 576.209 km

RAAN: 179.83 deg

Eccentricy: 0.00093429

Argument of periapsis: 227.3975 deg

Mean anomaly: 132.6422 deg

Mean motion: 14.94891369 rev/day

Mean motion (dot): 0.00033131 rev/day2

B* drag term: 0.0030239888 1/REarth

Two-line elements (TLE)

Creation date: Oct. 25, 2025, 3:11 a.m.

Reference frame: TEME

Reference center: EARTH

Epoch: Oct. 24, 2025, 7:09 p.m. UTC

TLE line 0: 0 COSMOS 2251 DEB

TLE line 1: 1 33939U 93036EU 25297.79796533 .00033131 00000-0 30240-2 0 9994

TLE line 2: 2 33939 74.0079 179.8300 0009343 227.3975 132.6422 14.94891369880200

Live tracking on map

Real-time ground track for satellite COSMOS 2251 DEB.

In-orbit conjunctions

A list of the most updated potential collisions computed for object COSMOS 2251 DEB.

Target Orbit TCA Probability of collision Miss distance Type
CZ-6A DEB LEO 2025-06-19 16:55:22 0.0001760032 393.0 (m) DEBRIS
CZ-4C R/B SSO 2024-11-02 11:14:02 0.0001609303 338.0 (m) ROCKET BODY
BILSAT 1 SSO 2024-06-03 08:32:00 0.0005783201 600.0 (m) PAYLOAD

Associated space launch

Military communications satellite. Destroyed in a collision with Iridium 33.

COSMOS 2251 DEB was lifted into orbit during the mission ‘Kosmos-3M | Strela-2M 51’, on board a Kosmos-3M space rocket.

The launch took place on June 16, 1993, 4:17 a.m. from 132/1 (132L).

For more information about the launch, click the button.

Launch to space Kosmos-3M | Strela-2M 51
Kosmos-3M | Strela-2M 51

Agency: N/A

Status: Launch Successful

Launch date: June 16, 1993, 4:17 a.m. UTC

Rocket: Kosmos-3M

Launch pad: 132/1 (132L)

Location: Plesetsk Cosmodrome, Russian Federation

...

Latest news about this satellite

There are no fresh news available about this satellite. Check back as we update our databases every day.


Newsletter sign-up

Weekly statistics, charts and insights to help you stay on top of the space industry.